SHT8Q EGPH-EGLL

Flight info

Callsign SHT8Q
Flight time 0h 58m
Altitude 23000
Route GOSAM DCT FENIK L612 VAMEB/N0442F330 DCT NUGRA
Aircraft A320/M-SDE3FGHIRWY/LB1

Departure

Time 2026-05-04 18:16
Airport Edinburgh Airport (EGPH)

Arrival

Time 2026-05-04 19:14
Airport London Heathrow Airport (EGLL)
Time Latitude Longitude Altitude Speed Heading
2026-05-04 17:54 55.94848 -3.35872 117 ft 0 kts 208°
2026-05-04 18:09 55.94858 -3.35862 114 ft 4 kts 208°
2026-05-04 18:09 55.94898 -3.35816 114 ft 4 kts 240°
2026-05-04 18:10 55.94904 -3.35773 114 ft 4 kts 285°
2026-05-04 18:10 55.94901 -3.35758 114 ft 0 kts 298°
2026-05-04 18:12 55.94904 -3.35765 114 ft 3 kts 298°
2026-05-04 18:13 55.94929 -3.35838 115 ft 10 kts 311°
2026-05-04 18:13 55.95001 -3.35843 114 ft 11 kts 27°
2026-05-04 18:13 55.95135 -3.35910 115 ft 15 kts 310°
2026-05-04 18:14 55.95231 -3.35975 113 ft 16 kts 20°
2026-05-04 18:14 55.95289 -3.35825 114 ft 15 kts 59°
2026-05-04 18:14 55.95350 -3.35644 114 ft 19 kts 59°
2026-05-04 18:15 55.95505 -3.35445 113 ft 17 kts 331°
2026-05-04 18:15 55.95396 -3.36086 111 ft 80 kts 238°
2026-05-04 18:15 55.94998 -3.37257 133 ft 135 kts 242°
2026-05-04 18:16 55.94498 -3.38690 694 ft 138 kts 241°
2026-05-04 18:16 55.94001 -3.40162 1400 ft 142 kts 242°
2026-05-04 18:16 55.93434 -3.41784 1856 ft 161 kts 241°
2026-05-04 18:17 55.91776 -3.45112 2711 ft 209 kts 224°
2026-05-04 18:17 55.90593 -3.46880 3249 ft 235 kts 224°
2026-05-04 18:17 55.87948 -3.50787 5239 ft 249 kts 223°
2026-05-04 18:18 55.86592 -3.52804 5909 ft 257 kts 223°
2026-05-04 18:18 55.85224 -3.54860 6960 ft 258 kts 223°
2026-05-04 18:18 55.83851 -3.56927 8017 ft 260 kts 223°
2026-05-04 18:18 55.82460 -3.59015 9032 ft 264 kts 223°
2026-05-04 18:19 55.79445 -3.63543 10331 ft 296 kts 223°
2026-05-04 18:19 55.77859 -3.65908 11175 ft 300 kts 223°
2026-05-04 18:19 55.76240 -3.68314 12028 ft 305 kts 223°
2026-05-04 18:20 55.74600 -3.70748 12876 ft 309 kts 223°
2026-05-04 18:20 55.72939 -3.73215 13732 ft 314 kts 223°
2026-05-04 18:20 55.71254 -3.75715 14503 ft 317 kts 223°
2026-05-04 18:20 55.69553 -3.78239 15270 ft 321 kts 223°
2026-05-04 18:21 55.67831 -3.80794 16031 ft 325 kts 223°
2026-05-04 18:21 55.66087 -3.83375 16772 ft 328 kts 223°
2026-05-04 18:21 55.64323 -3.85978 17508 ft 332 kts 223°
2026-05-04 18:21 55.62532 -3.88616 18246 ft 337 kts 223°
2026-05-04 18:22 55.60724 -3.91277 18893 ft 340 kts 223°
2026-05-04 18:22 55.58895 -3.93967 19557 ft 343 kts 223°
2026-05-04 18:22 55.57054 -3.96671 20253 ft 346 kts 223°
2026-05-04 18:22 55.55197 -3.99395 20910 ft 348 kts 223°
2026-05-04 18:23 55.53175 -4.01807 21523 ft 356 kts 210°
2026-05-04 18:23 55.50837 -4.03356 22135 ft 364 kts 197°
2026-05-04 18:23 55.48302 -4.03891 22741 ft 372 kts 183°
2026-05-04 18:23 55.45709 -4.03344 23011 ft 379 kts 168°
2026-05-04 18:24 55.43246 -4.01634 23059 ft 384 kts 154°
2026-05-04 18:24 55.40915 -3.99330 23057 ft 384 kts 153°
2026-05-04 18:24 55.38581 -3.97039 23058 ft 384 kts 154°
2026-05-04 18:24 55.36247 -3.94770 23056 ft 383 kts 154°
2026-05-04 18:25 55.33914 -3.92515 23058 ft 383 kts 154°
2026-05-04 18:25 55.31521 -3.90219 23065 ft 402 kts 154°
2026-05-04 18:25 55.29006 -3.87816 23058 ft 421 kts 154°
2026-05-04 18:25 55.26388 -3.85314 23060 ft 438 kts 153°
2026-05-04 18:26 55.23679 -3.82721 23056 ft 448 kts 153°
2026-05-04 18:26 55.20940 -3.80091 23054 ft 451 kts 153°
2026-05-04 18:26 55.18184 -3.77444 23053 ft 451 kts 153°
2026-05-04 18:26 55.15466 -3.74841 23053 ft 451 kts 153°
2026-05-04 18:27 55.12674 -3.72179 23055 ft 451 kts 153°
2026-05-04 18:27 55.09953 -3.69592 23051 ft 451 kts 153°
2026-05-04 18:27 55.07198 -3.66977 23062 ft 451 kts 153°
2026-05-04 18:27 55.04441 -3.64365 23053 ft 451 kts 153°
2026-05-04 18:28 55.01690 -3.61761 23051 ft 450 kts 153°
2026-05-04 18:28 54.98936 -3.59157 23057 ft 450 kts 153°
2026-05-04 18:28 54.96183 -3.56552 23053 ft 450 kts 153°
2026-05-04 18:28 54.93430 -3.53947 23048 ft 450 kts 153°
2026-05-04 18:29 54.90680 -3.51353 23042 ft 450 kts 153°
2026-05-04 18:29 54.88857 -3.49639 23040 ft 450 kts 153°
2026-05-04 18:29 54.86108 -3.47061 23035 ft 450 kts 153°
2026-05-04 18:29 54.82420 -3.43613 23046 ft 450 kts 153°
2026-05-04 18:30 54.77839 -3.39341 23044 ft 450 kts 153°
2026-05-04 18:30 54.75078 -3.36768 23043 ft 450 kts 153°
2026-05-04 18:30 54.72322 -3.34206 23042 ft 450 kts 153°
2026-05-04 18:31 54.69522 -3.31796 23040 ft 450 kts 155°
2026-05-04 18:31 54.66673 -3.29570 23038 ft 449 kts 157°
2026-05-04 18:31 54.63792 -3.27468 23036 ft 449 kts 158°
2026-05-04 18:31 54.60898 -3.25418 23034 ft 450 kts 159°
2026-05-04 18:32 54.58013 -3.23369 23040 ft 450 kts 158°
2026-05-04 18:32 54.55119 -3.21277 23032 ft 450 kts 158°
2026-05-04 18:32 54.52238 -3.19156 23030 ft 450 kts 157°
2026-05-04 18:32 54.49361 -3.17012 23034 ft 451 kts 157°
2026-05-04 18:33 54.46483 -3.14854 23034 ft 451 kts 157°
2026-05-04 18:33 54.43611 -3.12699 23029 ft 451 kts 157°
2026-05-04 18:33 54.40736 -3.10550 23042 ft 451 kts 157°
2026-05-04 18:33 54.37856 -3.08409 23041 ft 451 kts 157°
2026-05-04 18:34 54.34976 -3.06278 23038 ft 451 kts 157°
2026-05-04 18:34 54.32096 -3.04151 23043 ft 451 kts 157°
2026-05-04 18:34 54.29212 -3.02025 23044 ft 451 kts 157°
2026-05-04 18:34 54.26329 -2.99908 23048 ft 451 kts 157°
2026-05-04 18:35 54.23446 -2.97795 23047 ft 451 kts 157°
2026-05-04 18:35 54.20562 -2.95683 23048 ft 451 kts 157°
2026-05-04 18:35 54.17679 -2.93574 23052 ft 451 kts 157°
2026-05-04 18:35 54.14800 -2.91470 23056 ft 450 kts 157°
2026-05-04 18:36 54.11922 -2.89373 23061 ft 450 kts 157°
2026-05-04 18:36 54.09085 -2.87310 23068 ft 449 kts 157°
2026-05-04 18:36 54.06214 -2.85224 23075 ft 448 kts 156°
2026-05-04 18:36 54.03349 -2.83141 23077 ft 447 kts 156°
2026-05-04 18:37 54.00485 -2.81084 23081 ft 446 kts 159°
2026-05-04 18:37 53.97538 -2.79428 23081 ft 446 kts 162°
2026-05-04 18:37 53.94584 -2.77849 23084 ft 445 kts 162°
2026-05-04 18:37 53.91626 -2.76279 23083 ft 445 kts 162°
2026-05-04 18:38 53.88671 -2.74719 23087 ft 444 kts 162°
2026-05-04 18:38 53.85721 -2.73168 23085 ft 444 kts 162°
2026-05-04 18:38 53.82770 -2.71622 23086 ft 443 kts 162°
2026-05-04 18:38 53.79827 -2.70079 23082 ft 443 kts 162°
2026-05-04 18:39 53.76885 -2.68529 23081 ft 443 kts 162°
2026-05-04 18:39 53.73950 -2.66984 23075 ft 442 kts 162°
2026-05-04 18:39 53.71009 -2.65437 23072 ft 442 kts 162°
2026-05-04 18:39 53.68082 -2.63898 23072 ft 442 kts 162°
2026-05-04 18:40 53.65139 -2.62354 23069 ft 442 kts 162°
2026-05-04 18:40 53.62203 -2.60825 23064 ft 442 kts 162°
2026-05-04 18:40 53.59271 -2.59306 23055 ft 441 kts 162°
2026-05-04 18:40 53.56332 -2.57779 23052 ft 441 kts 162°
2026-05-04 18:41 53.53399 -2.56251 23053 ft 441 kts 162°
2026-05-04 18:41 53.50463 -2.54723 23052 ft 441 kts 162°
2026-05-04 18:41 53.47533 -2.53200 23050 ft 441 kts 162°
2026-05-04 18:41 53.44595 -2.51680 23051 ft 442 kts 161°
2026-05-04 18:42 53.41654 -2.50166 23047 ft 442 kts 162°
2026-05-04 18:42 53.38725 -2.48660 23048 ft 442 kts 162°
2026-05-04 18:42 53.35784 -2.47146 23048 ft 442 kts 162°
2026-05-04 18:42 53.32848 -2.45636 23057 ft 441 kts 162°
2026-05-04 18:43 53.29919 -2.44134 23058 ft 441 kts 162°
2026-05-04 18:43 53.26981 -2.42632 23057 ft 441 kts 162°
2026-05-04 18:43 53.24052 -2.41138 23057 ft 441 kts 162°
2026-05-04 18:43 53.21119 -2.39641 23059 ft 441 kts 162°
2026-05-04 18:44 53.18186 -2.38138 23057 ft 440 kts 162°
2026-05-04 18:44 53.16251 -2.37146 23059 ft 440 kts 162°
2026-05-04 18:44 53.12336 -2.35141 23057 ft 440 kts 162°
2026-05-04 18:44 53.09414 -2.33652 23059 ft 439 kts 162°
2026-05-04 18:45 53.06492 -2.32171 23058 ft 439 kts 162°
2026-05-04 18:45 53.03603 -2.30549 23063 ft 438 kts 157°
2026-05-04 18:45 53.00905 -2.28234 23061 ft 437 kts 148°
2026-05-04 18:45 52.98334 -2.25532 23059 ft 437 kts 148°
2026-05-04 18:46 52.95766 -2.22836 23059 ft 437 kts 148°
2026-05-04 18:46 52.93199 -2.20142 23059 ft 437 kts 148°
2026-05-04 18:46 52.90624 -2.17442 23062 ft 438 kts 148°
2026-05-04 18:46 52.88056 -2.14750 23057 ft 438 kts 148°
2026-05-04 18:47 52.85480 -2.12056 23056 ft 438 kts 148°
2026-05-04 18:47 52.82906 -2.09372 23055 ft 438 kts 149°
2026-05-04 18:47 52.80331 -2.06695 23058 ft 437 kts 149°
2026-05-04 18:47 52.77750 -2.04014 23055 ft 438 kts 149°
2026-05-04 18:48 52.75209 -2.01376 23054 ft 437 kts 149°
2026-05-04 18:48 52.72635 -1.98705 23055 ft 437 kts 149°
2026-05-04 18:48 52.70057 -1.96038 23055 ft 438 kts 150°
2026-05-04 18:48 52.67478 -1.93376 23056 ft 438 kts 150°
2026-05-04 18:49 52.64896 -1.90715 23056 ft 438 kts 150°
2026-05-04 18:49 52.62310 -1.88056 23055 ft 438 kts 150°
2026-05-04 18:49 52.59729 -1.85402 23053 ft 438 kts 150°
2026-05-04 18:49 52.57151 -1.82748 23057 ft 438 kts 151°
2026-05-04 18:50 52.54565 -1.80090 23056 ft 438 kts 151°
2026-05-04 18:50 52.51989 -1.77451 23056 ft 437 kts 151°
2026-05-04 18:50 52.49408 -1.74810 23055 ft 437 kts 151°
2026-05-04 18:50 52.47070 -1.72418 22949 ft 437 kts 151°
2026-05-04 18:51 52.44527 -1.69816 22608 ft 423 kts 151°
2026-05-04 18:51 52.42078 -1.67307 22302 ft 408 kts 151°
2026-05-04 18:51 52.39689 -1.64871 21984 ft 402 kts 151°
2026-05-04 18:51 52.37323 -1.62469 21660 ft 399 kts 151°
2026-05-04 18:52 52.34970 -1.60088 21351 ft 397 kts 151°
2026-05-04 18:52 52.32629 -1.57726 21034 ft 395 kts 151°
2026-05-04 18:52 52.30298 -1.55374 20722 ft 393 kts 151°
2026-05-04 18:52 52.27981 -1.53033 20422 ft 391 kts 150°
2026-05-04 18:53 52.25677 -1.50699 20136 ft 389 kts 150°
2026-05-04 18:53 52.23384 -1.48376 20032 ft 387 kts 150°
2026-05-04 18:53 52.21150 -1.45909 20062 ft 390 kts 143°
2026-05-04 18:53 52.19088 -1.43039 20055 ft 390 kts 141°
2026-05-04 18:54 52.17027 -1.40151 20054 ft 390 kts 141°
2026-05-04 18:54 52.14975 -1.37279 19922 ft 387 kts 141°
2026-05-04 18:54 52.12941 -1.34442 19335 ft 383 kts 141°
2026-05-04 18:54 52.10924 -1.31637 18786 ft 380 kts 141°
2026-05-04 18:55 52.08939 -1.28876 18473 ft 370 kts 141°
2026-05-04 18:55 52.05079 -1.23511 17370 ft 362 kts 141°
2026-05-04 18:55 52.03170 -1.20865 16784 ft 360 kts 141°
2026-05-04 18:56 52.01272 -1.18238 16187 ft 358 kts 141°
2026-05-04 18:56 51.99381 -1.15632 15609 ft 356 kts 141°
2026-05-04 18:56 51.97501 -1.13042 15148 ft 353 kts 141°
2026-05-04 18:56 51.95652 -1.10491 15015 ft 342 kts 141°
2026-05-04 18:57 51.93896 -1.08067 15028 ft 334 kts 141°
2026-05-04 18:57 51.92131 -1.05630 15029 ft 333 kts 141°
2026-05-04 18:57 51.90365 -1.03203 15033 ft 333 kts 141°
2026-05-04 18:57 51.88597 -1.00781 15031 ft 333 kts 141°
2026-05-04 18:58 51.86828 -0.98360 15033 ft 333 kts 141°
2026-05-04 18:58 51.85215 -0.95669 15032 ft 335 kts 126°
2026-05-04 18:58 51.84099 -0.92359 15033 ft 336 kts 117°
2026-05-04 18:58 51.83070 -0.88972 15032 ft 336 kts 117°
2026-05-04 18:59 51.82039 -0.85587 15033 ft 335 kts 117°
2026-05-04 18:59 51.81009 -0.82212 14904 ft 333 kts 117°
2026-05-04 18:59 51.79982 -0.78866 14474 ft 331 kts 117°
2026-05-04 18:59 51.78959 -0.75541 14047 ft 330 kts 117°
2026-05-04 19:00 51.77937 -0.72225 13617 ft 329 kts 117°
2026-05-04 19:00 51.76931 -0.68961 13187 ft 327 kts 117°
2026-05-04 19:00 51.75911 -0.65650 12753 ft 325 kts 117°
2026-05-04 19:00 51.74906 -0.62390 12337 ft 324 kts 117°
2026-05-04 19:01 51.73905 -0.59151 11929 ft 322 kts 117°
2026-05-04 19:01 51.72913 -0.55926 11538 ft 320 kts 117°
2026-05-04 19:01 51.71935 -0.52705 11145 ft 319 kts 117°
2026-05-04 19:01 51.70892 -0.49582 10795 ft 314 kts 128°
2026-05-04 19:02 51.69307 -0.47330 10674 ft 298 kts 154°
2026-05-04 19:02 51.67414 -0.46182 10547 ft 286 kts 165°
2026-05-04 19:02 51.65544 -0.45294 10311 ft 277 kts 166°
2026-05-04 19:02 51.63706 -0.44441 10081 ft 273 kts 166°
2026-05-04 19:03 51.61887 -0.43600 9783 ft 271 kts 166°
2026-05-04 19:03 51.60069 -0.42883 9475 ft 268 kts 177°
2026-05-04 19:03 51.58269 -0.43320 9169 ft 261 kts 206°
2026-05-04 19:03 51.56860 -0.45076 8866 ft 257 kts 234°
2026-05-04 19:04 51.56190 -0.47649 8543 ft 255 kts 263°
2026-05-04 19:04 51.56125 -0.50538 8204 ft 256 kts 270°
2026-05-04 19:04 51.56160 -0.53356 7888 ft 256 kts 271°
2026-05-04 19:04 51.56205 -0.56209 7591 ft 255 kts 271°
2026-05-04 19:05 51.56250 -0.59024 7435 ft 248 kts 271°
2026-05-04 19:05 51.56293 -0.61756 7219 ft 243 kts 271°
2026-05-04 19:05 51.56335 -0.64457 6900 ft 242 kts 271°
2026-05-04 19:05 51.56372 -0.67159 6586 ft 241 kts 271°
2026-05-04 19:06 51.56407 -0.69846 6271 ft 240 kts 271°
2026-05-04 19:06 51.56440 -0.72459 6023 ft 227 kts 271°
2026-05-04 19:06 51.56469 -0.74961 5603 ft 223 kts 271°
2026-05-04 19:06 51.56494 -0.77444 5131 ft 222 kts 271°
2026-05-04 19:07 51.56515 -0.79915 4650 ft 221 kts 271°
2026-05-04 19:07 51.56276 -0.82320 4197 ft 218 kts 243°
2026-05-04 19:07 51.55285 -0.83984 4081 ft 202 kts 207°
2026-05-04 19:07 51.53952 -0.84472 4000 ft 195 kts 184°
2026-05-04 19:08 51.52601 -0.84526 4002 ft 194 kts 172°
2026-05-04 19:08 51.51414 -0.83597 4011 ft 192 kts 133°
2026-05-04 19:08 51.50604 -0.81904 4008 ft 192 kts 122°
2026-05-04 19:08 51.49880 -0.80107 4007 ft 192 kts 121°
2026-05-04 19:09 51.49166 -0.78297 4008 ft 191 kts 121°
2026-05-04 19:09 51.48455 -0.76494 4008 ft 191 kts 121°
2026-05-04 19:09 51.47801 -0.74645 4014 ft 190 kts 109°
2026-05-04 19:09 51.47617 -0.72580 3958 ft 185 kts 89°
2026-05-04 19:10 51.47631 -0.70553 3416 ft 181 kts 88°
2026-05-04 19:10 51.47647 -0.68539 3037 ft 179 kts 88°
2026-05-04 19:10 51.47659 -0.66583 2661 ft 174 kts 87°
2026-05-04 19:10 51.47671 -0.64671 2221 ft 171 kts 87°
2026-05-04 19:11 51.47680 -0.62806 1933 ft 162 kts 86°
2026-05-04 19:11 51.47690 -0.61045 1694 ft 159 kts 87°
2026-05-04 19:11 51.47699 -0.59273 1469 ft 156 kts 86°
2026-05-04 19:11 51.47707 -0.57550 1256 ft 148 kts 87°
2026-05-04 19:12 51.47714 -0.55983 1049 ft 133 kts 87°
2026-05-04 19:12 51.47727 -0.53185 696 ft 121 kts 87°
2026-05-04 19:12 51.47740 -0.51834 504 ft 121 kts 86°
2026-05-04 19:13 51.47737 -0.50505 318 ft 121 kts 86°
2026-05-04 19:13 51.47748 -0.49119 189 ft 125 kts 86°
2026-05-04 19:13 51.47753 -0.47747 88 ft 116 kts 88°
2026-05-04 19:13 51.47757 -0.46659 93 ft 79 kts 90°
2026-05-04 19:14 51.47762 -0.45935 85 ft 58 kts 89°
2026-05-04 19:14 51.47744 -0.45517 87 ft 26 kts 126°
2026-05-04 19:14 51.47615 -0.45485 89 ft 0 kts 211°
2026-05-04 19:18 51.47596 -0.45544 87 ft 10 kts 266°
2026-05-04 19:18 51.47595 -0.45675 88 ft 14 kts 270°
2026-05-04 19:18 51.47595 -0.45847 88 ft 17 kts 269°
2026-05-04 19:18 51.47593 -0.46040 87 ft 18 kts 269°
2026-05-04 19:19 51.47593 -0.46255 87 ft 19 kts 270°
2026-05-04 19:19 51.47593 -0.46484 87 ft 19 kts 269°
2026-05-04 19:19 51.47591 -0.46714 87 ft 20 kts 269°
2026-05-04 19:19 51.47582 -0.46955 89 ft 22 kts 268°
2026-05-04 19:20 51.47581 -0.47201 88 ft 24 kts 270°
2026-05-04 19:20 51.47581 -0.47480 90 ft 24 kts 270°
2026-05-04 19:20 51.47579 -0.47739 90 ft 23 kts 269°
2026-05-04 19:20 51.47578 -0.47994 89 ft 23 kts 270°
2026-05-04 19:21 51.47579 -0.48236 88 ft 23 kts 270°
2026-05-04 19:21 51.47566 -0.48453 90 ft 16 kts 230°
2026-05-04 19:21 51.47486 -0.48536 90 ft 12 kts 250°
2026-05-04 19:21 51.47486 -0.48686 89 ft 15 kts 269°
2026-05-04 19:22 51.47485 -0.48823 88 ft 14 kts 269°
2026-05-04 19:22 51.47493 -0.48925 88 ft 9 kts 271°
2026-05-04 19:22 51.47455 -0.48953 87 ft 6 kts 184°
2026-05-04 19:22 51.47421 -0.48956 91 ft 0 kts 180°